Skip Page Navigation
NASA JPL Caltech
NASA Logo - Jet Propulsion Laboratory + View the NASA Portal
+ Near-Earth Object (NEO) Program
Search JPL
JPL Home Earth Solar System Stars & Galaxies Technology
JPL Solar System Dynamics
BODIES ORBITS EPHEMERIDES TOOLS PHYSICAL DATA DISCOVERY FAQ SITE MAP
JPL Small-Body Database Browser
Search: [ help ]  
114022 Bizyaev (2002 UZ51)
Classification: Main-belt Asteroid          SPK-ID: 2114022
Ephemeris | Orbit Diagram | Orbital Elements | Physical Parameters | Discovery Circumstances ]

[ show orbit diagram ]
Orbital Elements at Epoch 2456800.5 (2014-May-23.0) TDB
Reference: JPL 6 (heliocentric ecliptic J2000)
 Element Value Uncertainty (1-sigma)   Units 
e .09994416281616575 8.8894e-08  
a 2.684539986238585 3.4042e-08 AU
q 2.416235884767448 2.2894e-07 AU
i 11.69686240900549 1.3021e-05 deg
node 221.5023264213988 3.6715e-05 deg
peri 286.4445395502344 7.273e-05 deg
M 71.29223305841434 6.1909e-05 deg
tp 2456482.341917890908
(2013-Jul-08.84191789)
0.00027643 JED
period 1606.583279070888
4.40
3.0559e-05
8.367e-08
d
yr
n .2240780199132868 4.2623e-09 deg/d
Q 2.952844087709721 3.7445e-08 AU
  Orbit Determination Parameters
   # obs. used (total)      185  
   data-arc span      5224 days (14.30 yr)  
   first obs. used      2000-02-06  
   last obs. used      2014-05-27  
   planetary ephem.      DE431  
   SB-pert. ephem.      SB431-BIG16  
   condition code      0  
   fit RMS      .62153  
   data source      ORB  
   producer      Otto Matic  
   solution date      2014-Jun-16 16:26:16  

Additional Information
 Earth MOID = 1.45685 AU 
 T_jup = 3.338 
[ show covariance matrix ]

Ephemeris | Orbit Diagram | Orbital Elements | Physical Parameters | Discovery Circumstances ]

Physical Parameter Table
Parameter Symbol Value Units Sigma Reference Notes
absolute magnitude H 15.9 mag n/a MPO248074  

114022 Bizyaev           Discovered 2002 Oct. 29 by the Sloan Digital Sky Survey at the Apache Point Observatory.
Dmitry Bizyaev (b. 1969) is a Russian-American astronomer and a significant contributor to the Sloan Digital Sky Survey.
NOTE: some special characters may not display properly (any characters within {} are an attempt to place the proper accent above a character)
Reference: 20110517/MPCPages.arcLast Updated: 2011-06-24
Ephemeris | Orbit Diagram | Orbital Elements | Physical Parameters | Discovery Circumstances ]
ABOUT SSD CREDITS/AWARDS PRIVACY/COPYRIGHT GLOSSARY LINKS
FirstGov 2014-Jul-26 07:07 UT
(server date/time)  
NASA Home Page
Site Manager:   Donald K. Yeomans
Webmaster  Alan B. Chamberlin